Location: Liberec
(50.7830°N, 15.0500°E)
Time: 19:52:07
(UTC+02:00)

ISS - Pass Details

Date: 26 May 2021
Orbit: 417 x 422 km, 51.6° (Epoch: 16 June)

Event Time Altitude Azimuth Distance (km) Brightness Sun altitude
Rises 23:01:35 0° 285° (WNW) 2,368 0.7 -13.6°
Reaches altitude 10° 23:03:48 10° 276° (W) 1,502 -0.5 -13.7°
Maximum altitude 23:06:52 33° 210° (SSW) 724 -2.9 -14.0°
Enters shadow 23:07:52 27° 174° (S) 841 -2.8 -14.0°
